カタログに戻る

GEESAT 1-06

運用中通信LEO
NORAD 52790·PAYLOAD·🇨🇳 China

打ち上げ Jun 2, 2022 から Xichang Satellite Launch Center

Loading…

次のパス (今後24時間)

TLE

最新Source: Space-Track

元期: Sep 14, 2026, 13:58 UTC

1 52790U 22058F   26257.58259276  .00001287  00000-0  18951-3 0  9991
2 52790  50.0048 150.0555 0032932 128.0759 232.3157 14.81576345233188

AllMySatでGEESAT 1-06をリアルタイム追跡

Download on the App Store